Location: 22
(39.7117°N, 89.5929°W)
Time: 08:46:31
(UTC-05:00)

S-56A Canister/Altair - Pass Details

Date: 08 February 2023
Orbit: 638 x 2493 km, 38.9° (Epoch: 25 March)

Event Time Altitude Azimuth Distance (km) Brightness Sun altitude
Rises 15:03:30 0° 276° (W) 3,297 11.3 22.5°
Reaches altitude 10° 15:06:01 10° 264° (W) 2,538 11.2 22.1°
Maximum altitude 15:11:01 27° 207° (SSW) 1,944 11.4 21.4°
Drops below altitude 10° 15:17:46 10° 154° (SSE) 3,500 11.2 20.5°
Sets 15:21:55 0° 144° (SE) 4,826 11.7 19.9°
